Tracking 18840 objects as of 20-November-2017
HD Live streaming from Space Station
objects crossing your sky now

BIRD 2

Track BIRD 2 now!
10-day predictions
BIRD 2 is classified as:


NORAD ID: 26959
Int'l Code: 2001-049C
Perigee: 462.0 km
Apogee: 473.6 km
Inclination: 97.8 °
Period: 93.8 minutes
Semi major axis: 6838 km
RCS: 0.458 m2 (medium)
Launch date: October 22, 2001
Source: Germany (GER)
Launch site: SRIHARIKOTA (SRI)

Forest fire recognition by small satellites.
aabbcc
Your satellite tracking list
Your tracking list is empty




NASA's NSSDC Master Catalog

Two Line Element Set (TLE):
1 26959U 01049C   17323.88630547  .00002811  00000-0  85081-4 0  9990
2 26959  97.8075 279.7087 0008470 180.3492 179.7745 15.35099753890201
Source of the keplerian elements: AFSPC